This is the latest recevied weather packets stored in our database for station/object LU4EGV-13. If no packets are shown the sender has not sent any weather packets the latest 10 day(s).
| Time | Temp. | Humidity | Pressure | Rain* | Wind** | Luminosity | Snow |
|---|---|---|---|---|---|---|---|
| 1778204180 | 11.67° C | 95% | 998.2 hPa | 0 mm | - | - | - |
| 1778203573 | 11.67° C | 94% | 998.5 hPa | 0 mm | - | - | - |
| 1778202967 | 11.67° C | 93% | 998.8 hPa | 0 mm | - | - | - |
| 1778202361 | 11.67° C | 91% | 998.5 hPa | 0.25 mm | - | - | - |
| 1778201755 | 11.67° C | 91% | 998.3 hPa | 0.25 mm | - | - | - |
| 1778201148 | 11.67° C | 90% | 998.6 hPa | 0.25 mm | - | - | - |
| 1778200554 | 11.67° C | 89% | 998.4 hPa | 0.25 mm | - | - | - |
| 1778199937 | 12.22° C | 86% | 998.3 hPa | 0.25 mm | - | - | - |
| 1778199331 | 12.22° C | 86% | 998.4 hPa | 0 mm | - | - | - |
| 1778198725 | 12.22° C | 87% | 998.3 hPa | 0 mm | - | - | - |
| 1778198121 | 12.22° C | 88% | 998.6 hPa | 0 mm | - | - | - |
| 1778197512 | 12.22° C | 89% | 998.6 hPa | 0 mm | - | - | - |
| 1778196906 | 12.22° C | 90% | 998.8 hPa | 0 mm | - | - | - |
| 1778196299 | 12.22° C | 90% | 998.8 hPa | 0 mm | - | - | - |
| 1778195693 | 12.22° C | 89% | 998.7 hPa | 0 mm | - | - | - |
| 1778195099 | 12.78° C | 88% | 999.1 hPa | 0 mm | - | - | - |
| 1778194481 | 12.78° C | 87% | 999 hPa | 0 mm | - | - | - |
| 1778193875 | 13.33° C | 83% | 999.1 hPa | 0 mm | - | - | - |
| 1778193268 | 13.33° C | 83% | 999.1 hPa | 0 mm | - | - | - |
| 1778192662 | 13.33° C | 82% | 998.9 hPa | 0 mm | - | - | - |
| 1778192061 | 13.33° C | 81% | 998.9 hPa | 0 mm | - | - | - |
| 1778191450 | 13.89° C | 79% | 998.7 hPa | 0 mm | - | - | - |
| 1778190843 | 13.89° C | 77% | 998.3 hPa | 0 mm | - | - | - |
| 1778190238 | 13.89° C | 75% | 998.3 hPa | 0 mm | - | - | - |
| 1778189631 | 13.89° C | 74% | 998.6 hPa | 0 mm | - | - | - |
* Rain latest hour (hover to see other rain measurements)
** Current wind speed in m/s (hover to see current wind gust speed)